Time,TemperatureF,DewpointF,PressureIn,WindDirection,WindDirectionDegrees,WindSpeedMPH,WindSpeedGustMPH,Humidity,HourlyPrecipIn,Conditions,Clouds,dailyrainin,SoftwareType,DateUTC
2013-07-29 00:01:00,72.5,71.3,29.85,ESE,121,0.0,0.0,96,0.03,,---,0.30,VWS V14.00,2013-07-29 04:01:00,
2013-07-29 00:02:00,72.5,71.3,29.86,ESE,122,0.0,0.0,96,0.03,,---,0.30,VWS V14.00,2013-07-29 04:02:00,
2013-07-29 00:03:00,72.5,71.3,29.86,ESE,121,0.0,0.0,96,0.03,,---,0.30,VWS V14.00,2013-07-29 04:03:00,
2013-07-29 00:08:00,72.4,71.2,29.86,SE,127,0.0,0.0,96,0.03,,---,0.00,VWS V14.00,2013-07-29 04:08:00,
2013-07-29 00:13:00,72.3,71.1,29.86,SE,127,0.0,0.0,96,0.03,,---,0.00,VWS V14.00,2013-07-29 04:13:00,
2013-07-29 00:18:00,72.3,71.1,29.87,SE,127,0.0,0.0,96,0.03,,---,0.00,VWS V14.00,2013-07-29 04:18:00,
2013-07-29 00:23:00,72.2,71.0,29.87,West,271,0.0,0.0,96,0.03,,---,0.00,VWS V14.00,2013-07-29 04:23:00,
2013-07-29 00:28:00,72.2,71.0,29.87,SSW,210,1.0,2.0,96,0.02,,---,0.00,VWS V14.00,2013-07-29 04:28:00,
2013-07-29 00:33:00,72.2,71.0,29.87,SW,218,0.0,1.0,96,0.02,,---,0.00,VWS V14.00,2013-07-29 04:33:00,
2013-07-29 00:38:00,72.1,70.9,29.86,SSW,197,0.0,0.0,96,0.01,,---,0.00,VWS V14.00,2013-07-29 04:38:00,
2013-07-29 00:44:00,72.0,70.8,29.86,South,170,0.0,0.0,96,0.00,,---,0.00,VWS V14.00,2013-07-29 04:44:00,
2013-07-29 00:49:00,71.9,70.7,29.86,NW,305,0.0,0.0,96,0.00,,---,0.00,VWS V14.00,2013-07-29 04:49:00,
2013-07-29 00:54:00,71.9,70.7,29.86,NW,305,0.0,0.0,96,0.00,,---,0.00,VWS V14.00,2013-07-29 04:54:00,
2013-07-29 00:59:00,71.8,70.6,29.86,NW,304,0.0,0.0,96,0.00,,---,0.00,VWS V14.00,2013-07-29 04:59:00,
2013-07-29 01:04:00,71.7,70.5,29.86,WNW,283,0.0,0.0,96,0.00,,---,0.00,VWS V14.00,2013-07-29 05:04:00,
2013-07-29 01:09:00,71.6,70.4,29.86,West,272,0.0,0.0,96,0.00,,---,0.00,VWS V14.00,2013-07-29 05:09:00,
2013-07-29 01:14:00,71.6,70.4,29.86,West,272,0.0,0.0,96,0.00,,---,0.00,VWS V14.00,2013-07-29 05:14:00,
2013-07-29 01:19:00,71.5,70.3,29.86,West,274,0.0,0.0,96,0.00,,---,0.00,VWS V14.00,2013-07-29 05:19:00,
2013-07-29 01:24:00,71.5,70.3,29.86,West,273,0.0,0.0,96,0.00,,---,0.00,VWS V14.00,2013-07-29 05:24:00,
2013-07-29 01:30:00,71.4,70.2,29.86,West,273,0.0,0.0,96,0.00,,---,0.00,VWS V14.00,2013-07-29 05:30:00,
2013-07-29 01:35:00,71.3,70.1,29.86,West,273,0.0,0.0,96,0.00,,---,0.00,VWS V14.00,2013-07-29 05:35:00,
2013-07-29 01:40:00,71.2,70.0,29.86,West,273,0.0,0.0,96,0.00,,---,0.00,VWS V14.00,2013-07-29 05:40:00,
2013-07-29 01:45:00,71.2,70.0,29.86,West,272,0.0,0.0,96,0.00,,---,0.00,VWS V14.00,2013-07-29 05:45:00,
2013-07-29 01:50:00,71.2,70.0,29.86,West,272,0.0,0.0,96,0.00,,---,0.00,VWS V14.00,2013-07-29 05:50:00,
2013-07-29 01:55:00,71.1,69.9,29.86,West,272,0.0,0.0,96,0.00,,---,0.00,VWS V14.00,2013-07-29 05:55:00,
2013-07-29 01:57:00,71.1,69.9,29.86,West,273,0.0,0.0,96,0.00,,---,0.00,VWS V14.00,2013-07-29 05:57:00,
2013-07-29 02:02:00,70.9,69.7,29.86,West,272,0.0,0.0,96,0.00,,---,0.00,VWS V14.00,2013-07-29 06:02:00,
2013-07-29 02:07:00,70.9,69.7,29.87,West,273,0.0,0.0,96,0.00,,---,0.00,VWS V14.00,2013-07-29 06:07:00,
2013-07-29 02:12:00,70.9,69.7,29.87,West,273,0.0,0.0,96,0.00,,---,0.00,VWS V14.00,2013-07-29 06:12:00,
2013-07-29 02:17:00,70.9,69.7,29.87,West,273,0.0,0.0,96,0.00,,---,0.00,VWS V14.00,2013-07-29 06:17:00,
2013-07-29 02:22:00,70.9,69.7,29.86,West,272,0.0,0.0,96,0.00,,---,0.00,VWS V14.00,2013-07-29 06:22:00,
2013-07-29 02:27:00,70.9,69.7,29.86,West,278,0.0,0.0,96,0.00,,---,0.00,VWS V14.00,2013-07-29 06:27:00,
2013-07-29 02:32:00,70.9,69.7,29.87,West,278,0.0,0.0,96,0.00,,---,0.00,VWS V14.00,2013-07-29 06:32:00,
2013-07-29 02:38:00,70.8,69.6,29.87,West,278,0.0,0.0,96,0.00,,---,0.00,VWS V14.00,2013-07-29 06:38:00,
2013-07-29 02:43:00,70.8,69.6,29.86,West,278,0.0,0.0,96,0.00,,---,0.00,VWS V14.00,2013-07-29 06:43:00,
2013-07-29 02:48:00,70.8,69.6,29.86,West,278,0.0,0.0,96,0.00,,---,0.00,VWS V14.00,2013-07-29 06:48:00,
2013-07-29 02:53:00,70.8,69.6,29.86,West,278,0.0,0.0,96,0.00,,---,0.00,VWS V14.00,2013-07-29 06:53:00,
2013-07-29 02:58:00,70.7,69.5,29.86,West,278,0.0,0.0,96,0.00,,---,0.00,VWS V14.00,2013-07-29 06:58:00,
2013-07-29 03:03:00,70.7,69.5,29.87,West,278,0.0,0.0,96,0.00,,---,0.00,VWS V14.00,2013-07-29 07:03:00,
2013-07-29 03:08:00,70.6,69.4,29.88,WSW,253,0.0,0.0,96,0.00,,---,0.00,VWS V14.00,2013-07-29 07:08:00,
2013-07-29 03:13:00,70.6,69.4,29.88,West,270,0.0,0.0,96,0.00,,---,0.00,VWS V14.00,2013-07-29 07:13:00,
2013-07-29 03:18:00,70.7,69.5,29.88,NNE,20,0.0,0.0,96,0.00,,---,0.00,VWS V14.00,2013-07-29 07:18:00,
2013-07-29 03:20:00,70.7,69.5,29.88,NNE,20,0.0,0.0,96,0.00,,---,0.00,VWS V14.00,2013-07-29 07:20:00,
2013-07-29 03:25:00,70.7,69.5,29.87,NNE,20,0.0,0.0,96,0.00,,---,0.00,VWS V14.00,2013-07-29 07:25:00,
2013-07-29 03:30:00,70.6,69.4,29.88,WNW,288,0.0,0.0,96,0.00,,---,0.00,VWS V14.00,2013-07-29 07:30:00,
2013-07-29 03:35:00,70.5,69.3,29.88,WNW,288,0.0,0.0,96,0.00,,---,0.00,VWS V14.00,2013-07-29 07:35:00,
2013-07-29 03:40:00,70.5,69.3,29.87,WNW,294,0.0,0.0,96,0.00,,---,0.00,VWS V14.00,2013-07-29 07:40:00,
2013-07-29 03:45:00,70.4,69.2,29.87,NW,323,0.0,2.0,96,0.00,,---,0.00,VWS V14.00,2013-07-29 07:45:00,
2013-07-29 03:50:00,70.3,69.1,29.87,WNW,290,0.0,0.0,96,0.00,,---,0.00,VWS V14.00,2013-07-29 07:50:00,
2013-07-29 03:55:00,70.1,68.9,29.87,SSE,165,0.0,1.0,96,0.00,,---,0.00,VWS V14.00,2013-07-29 07:55:00,
2013-07-29 04:00:00,70.0,68.8,29.87,SSE,165,0.0,0.0,96,0.00,,---,0.00,VWS V14.00,2013-07-29 08:00:00,
2013-07-29 04:06:00,69.9,68.7,29.87,SSE,165,0.0,0.0,96,0.00,,---,0.00,VWS V14.00,2013-07-29 08:06:00,
2013-07-29 04:11:00,69.8,68.6,29.87,SSE,165,0.0,0.0,96,0.00,,---,0.00,VWS V14.00,2013-07-29 08:11:00,
2013-07-29 04:16:00,69.8,68.6,29.86,SSE,165,0.0,0.0,96,0.00,,---,0.00,VWS V14.00,2013-07-29 08:16:00,
2013-07-29 04:21:00,69.8,68.9,29.87,SSE,165,0.0,0.0,97,0.00,,---,0.00,VWS V14.00,2013-07-29 08:21:00,
2013-07-29 04:26:00,69.8,68.9,29.87,SSE,162,0.0,0.0,97,0.00,,---,0.00,VWS V14.00,2013-07-29 08:26:00,
2013-07-29 04:31:00,69.8,68.9,29.86,SSE,162,0.0,0.0,97,0.00,,---,0.00,VWS V14.00,2013-07-29 08:31:00,
2013-07-29 04:36:00,69.8,68.9,29.86,SSE,162,0.0,0.0,97,0.00,,---,0.00,VWS V14.00,2013-07-29 08:36:00,
2013-07-29 04:41:00,69.7,68.8,29.86,SSE,163,0.0,0.0,97,0.00,,---,0.00,VWS V14.00,2013-07-29 08:41:00,
2013-07-29 04:46:00,69.6,68.7,29.86,SSE,163,0.0,0.0,97,0.00,,---,0.00,VWS V14.00,2013-07-29 08:46:00,
2013-07-29 04:51:00,69.6,68.7,29.86,SSE,163,0.0,0.0,97,0.00,,---,0.00,VWS V14.00,2013-07-29 08:51:00,
2013-07-29 04:56:00,69.5,68.6,29.86,SSE,162,0.0,0.0,97,0.00,,---,0.00,VWS V14.00,2013-07-29 08:56:00,
2013-07-29 05:02:00,69.4,68.5,29.86,SSE,162,0.0,0.0,97,0.00,,---,0.00,VWS V14.00,2013-07-29 09:02:00,
2013-07-29 05:07:00,69.3,68.4,29.86,SSE,162,0.0,0.0,97,0.00,,---,0.00,VWS V14.00,2013-07-29 09:07:00,
2013-07-29 05:12:00,69.1,68.2,29.87,SSE,163,0.0,0.0,97,0.00,,---,0.00,VWS V14.00,2013-07-29 09:12:00,
2013-07-29 05:16:00,69.1,68.2,29.87,SSE,163,0.0,0.0,97,0.00,,---,0.00,VWS V14.00,2013-07-29 09:16:00,
2013-07-29 05:22:00,69.0,68.1,29.87,SSE,164,0.0,0.0,97,0.00,,---,0.00,VWS V14.00,2013-07-29 09:22:00,
2013-07-29 05:27:00,68.9,68.0,29.87,SSE,164,0.0,0.0,97,0.00,,---,0.00,VWS V14.00,2013-07-29 09:27:00,
2013-07-29 05:32:00,68.8,67.9,29.87,SSE,162,0.0,0.0,97,0.00,,---,0.00,VWS V14.00,2013-07-29 09:32:00,
2013-07-29 05:37:00,68.7,67.8,29.87,SSE,162,0.0,0.0,97,0.00,,---,0.00,VWS V14.00,2013-07-29 09:37:00,
2013-07-29 05:42:00,68.6,67.7,29.87,SSE,162,0.0,0.0,97,0.00,,---,0.00,VWS V14.00,2013-07-29 09:42:00,
2013-07-29 05:47:00,68.3,67.4,29.87,SSE,162,0.0,0.0,97,0.00,,---,0.00,VWS V14.00,2013-07-29 09:47:00,
2013-07-29 05:52:00,68.1,67.2,29.87,SSE,162,0.0,0.0,97,0.00,,---,0.00,VWS V14.00,2013-07-29 09:52:00,
2013-07-29 05:57:00,68.2,67.3,29.87,SSE,162,0.0,0.0,97,0.00,,---,0.00,VWS V14.00,2013-07-29 09:57:00,
2013-07-29 06:02:00,68.2,67.3,29.87,SSE,162,0.0,0.0,97,0.00,,---,0.00,VWS V14.00,2013-07-29 10:02:00,
2013-07-29 06:07:00,68.2,67.3,29.87,SSE,163,0.0,0.0,97,0.00,,---,0.00,VWS V14.00,2013-07-29 10:07:00,
2013-07-29 06:13:00,68.3,67.4,29.87,SSE,163,0.0,0.0,97,0.00,,---,0.00,VWS V14.00,2013-07-29 10:13:00,
2013-07-29 06:18:00,68.4,67.5,29.87,SW,217,0.0,0.0,97,0.00,,---,0.00,VWS V14.00,2013-07-29 10:18:00,
2013-07-29 06:23:00,68.7,67.8,29.87,SW,218,0.0,0.0,97,0.00,,---,0.00,VWS V14.00,2013-07-29 10:23:00,
2013-07-29 06:28:00,69.0,68.1,29.87,SW,217,0.0,0.0,97,0.00,,---,0.00,VWS V14.00,2013-07-29 10:28:00,
2013-07-29 06:34:00,69.1,68.2,29.87,SW,217,0.0,0.0,97,0.00,,---,0.00,VWS V14.00,2013-07-29 10:34:00,
2013-07-29 06:39:00,69.1,68.2,29.88,SW,218,0.0,0.0,97,0.00,,---,0.00,VWS V14.00,2013-07-29 10:39:00,
2013-07-29 06:44:00,69.2,68.3,29.88,WNW,293,1.0,3.0,97,0.00,,---,0.00,VWS V14.00,2013-07-29 10:44:00,
2013-07-29 06:49:00,69.3,68.4,29.89,NW,315,0.0,2.0,97,0.00,,---,0.00,VWS V14.00,2013-07-29 10:49:00,
2013-07-29 06:55:00,69.5,68.6,29.89,WNW,298,3.0,3.0,97,0.00,,---,0.00,VWS V14.00,2013-07-29 10:55:00,
2013-07-29 07:00:00,69.6,68.7,29.89,West,281,1.0,4.0,97,0.00,,---,0.00,VWS V14.00,2013-07-29 11:00:00,
2013-07-29 07:05:00,69.4,68.5,29.90,WNW,298,5.0,7.0,97,0.00,,---,0.00,VWS V14.00,2013-07-29 11:05:00,
2013-07-29 07:10:00,69.4,68.5,29.90,NW,309,3.0,4.0,97,0.00,,---,0.00,VWS V14.00,2013-07-29 11:10:00,
2013-07-29 07:15:00,69.3,68.1,29.90,NW,326,2.0,6.0,96,0.00,,---,0.00,VWS V14.00,2013-07-29 11:15:00,
2013-07-29 07:20:00,69.3,68.1,29.90,NW,322,4.0,4.0,96,0.00,,---,0.00,VWS V14.00,2013-07-29 11:20:00,
2013-07-29 07:26:00,69.5,68.3,29.90,NNW,338,3.0,6.0,96,0.00,,---,0.00,VWS V14.00,2013-07-29 11:26:00,
2013-07-29 07:31:00,69.8,68.6,29.90,NNW,335,5.0,6.0,96,0.00,,---,0.00,VWS V14.00,2013-07-29 11:31:00,
2013-07-29 07:36:00,70.1,68.6,29.90,NNW,347,5.0,5.0,95,0.00,,---,0.00,VWS V14.00,2013-07-29 11:36:00,
2013-07-29 07:41:00,70.2,68.4,29.90,NW,322,3.0,4.0,94,0.00,,---,0.00,VWS V14.00,2013-07-29 11:41:00,
2013-07-29 07:47:00,70.6,68.5,29.90,North,352,1.0,5.0,93,0.00,,---,0.00,VWS V14.00,2013-07-29 11:47:00,
2013-07-29 07:52:00,71.2,69.1,29.90,NNW,348,0.0,0.0,93,0.00,,---,0.00,VWS V14.00,2013-07-29 11:52:00,
2013-07-29 07:57:00,71.7,69.3,29.91,East,93,0.0,0.0,92,0.00,,---,0.00,VWS V14.00,2013-07-29 11:57:00,
2013-07-29 08:03:00,72.8,69.4,29.91,North,355,2.0,2.0,89,0.00,,---,0.00,VWS V14.00,2013-07-29 12:03:00,
2013-07-29 08:08:00,72.9,68.8,29.91,NNW,347,0.0,2.0,87,0.00,,---,0.00,VWS V14.00,2013-07-29 12:08:00,
2013-07-29 08:13:00,73.5,68.7,29.91,North,359,0.0,2.0,85,0.00,,---,0.00,VWS V14.00,2013-07-29 12:13:00,
2013-07-29 08:18:00,73.7,68.6,29.91,ENE,58,2.0,3.0,84,0.00,,---,0.00,VWS V14.00,2013-07-29 12:18:00,
2013-07-29 08:23:00,73.4,68.6,29.91,NNE,22,2.0,4.0,85,0.00,,---,0.00,VWS V14.00,2013-07-29 12:23:00,
2013-07-29 08:28:00,73.4,69.0,29.92,NE,34,2.0,4.0,86,0.00,,---,0.00,VWS V14.00,2013-07-29 12:28:00,
2013-07-29 08:33:00,73.7,68.9,29.92,NE,50,0.0,2.0,85,0.00,,---,0.00,VWS V14.00,2013-07-29 12:33:00,
2013-07-29 08:38:00,74.2,69.1,29.92,North,356,0.0,4.0,84,0.00,,---,0.00,VWS V14.00,2013-07-29 12:38:00,
2013-07-29 08:43:00,74.2,68.0,29.92,NE,39,0.0,4.0,81,0.00,,---,0.00,VWS V14.00,2013-07-29 12:43:00,
2013-07-29 08:48:00,74.3,68.4,29.92,NE,56,2.0,2.0,82,0.00,,---,0.00,VWS V14.00,2013-07-29 12:48:00,
2013-07-29 08:53:00,74.2,68.0,29.92,NNE,20,2.0,3.0,81,0.00,,---,0.00,VWS V14.00,2013-07-29 12:53:00,
2013-07-29 08:59:00,74.4,68.6,29.92,NE,55,0.0,0.0,82,0.00,,---,0.00,VWS V14.00,2013-07-29 12:59:00,
2013-07-29 09:04:00,74.7,68.1,29.92,NNW,348,3.0,5.0,80,0.00,,---,0.00,VWS V14.00,2013-07-29 13:04:00,
2013-07-29 09:09:00,74.6,68.0,29.92,NW,317,6.0,6.0,80,0.00,,---,0.00,VWS V14.00,2013-07-29 13:09:00,
2013-07-29 09:14:00,74.5,67.6,29.92,NW,315,3.0,7.0,79,0.00,,---,0.00,VWS V14.00,2013-07-29 13:14:00,
2013-07-29 09:19:00,74.3,67.4,29.92,NNW,329,3.0,5.0,79,0.00,,---,0.00,VWS V14.00,2013-07-29 13:19:00,
2013-07-29 09:25:00,74.6,68.4,29.92,NW,315,3.0,6.0,81,0.00,,---,0.00,VWS V14.00,2013-07-29 13:25:00,
2013-07-29 09:30:00,74.9,67.6,29.92,NE,34,2.0,7.0,78,0.00,,---,0.00,VWS V14.00,2013-07-29 13:30:00,
2013-07-29 09:35:00,74.9,67.9,29.92,NNW,327,7.0,7.0,79,0.00,,---,0.00,VWS V14.00,2013-07-29 13:35:00,
2013-07-29 09:40:00,75.1,67.8,29.92,NNE,32,2.0,8.0,78,0.00,,---,0.00,VWS V14.00,2013-07-29 13:40:00,
2013-07-29 09:45:00,75.5,68.5,29.92,NNE,23,5.0,7.0,79,0.00,,---,0.00,VWS V14.00,2013-07-29 13:45:00,
2013-07-29 09:51:00,75.9,68.2,29.92,NNE,20,3.0,6.0,77,0.00,,---,0.00,VWS V14.00,2013-07-29 13:51:00,
2013-07-29 09:56:00,76.6,69.2,29.93,NE,38,4.0,4.0,78,0.00,,---,0.00,VWS V14.00,2013-07-29 13:56:00,
2013-07-29 10:02:00,76.8,68.7,29.93,North,355,2.0,5.0,76,0.00,,---,0.00,VWS V14.00,2013-07-29 14:02:00,
2013-07-29 10:08:00,77.4,68.9,29.93,WNW,285,0.0,5.0,75,0.00,,---,0.00,VWS V14.00,2013-07-29 14:08:00,
2013-07-29 10:13:00,77.5,68.2,29.93,NE,34,4.0,5.0,73,0.00,,---,0.00,VWS V14.00,2013-07-29 14:13:00,
2013-07-29 10:18:00,77.7,68.8,29.93,ESE,114,2.0,8.0,74,0.00,,---,0.00,VWS V14.00,2013-07-29 14:18:00,
2013-07-29 10:23:00,77.7,68.4,29.93,East,79,3.0,4.0,73,0.00,,---,0.00,VWS V14.00,2013-07-29 14:23:00,
2013-07-29 10:28:00,78.4,70.6,29.93,NNW,340,6.0,6.0,77,0.00,,---,0.00,VWS V14.00,2013-07-29 14:28:00,
2013-07-29 10:33:00,78.4,69.0,29.93,West,281,3.0,6.0,73,0.00,,---,0.00,VWS V14.00,2013-07-29 14:33:00,
2013-07-29 10:38:00,78.6,67.6,29.93,NNE,27,3.0,6.0,69,0.00,,---,0.00,VWS V14.00,2013-07-29 14:38:00,
2013-07-29 10:43:00,78.8,68.2,29.93,SW,219,0.0,4.0,70,0.00,,---,0.00,VWS V14.00,2013-07-29 14:43:00,
2013-07-29 10:48:00,79.6,68.5,29.93,SW,236,0.0,0.0,69,0.00,,---,0.00,VWS V14.00,2013-07-29 14:48:00,
2013-07-29 10:53:00,79.7,68.2,29.93,ESE,113,1.0,2.0,68,0.00,,---,0.00,VWS V14.00,2013-07-29 14:53:00,
2013-07-29 10:58:00,80.5,68.1,29.93,NNE,13,2.0,6.0,66,0.00,,---,0.00,VWS V14.00,2013-07-29 14:58:00,
2013-07-29 11:04:00,80.0,69.3,29.93,WNW,290,5.0,5.0,70,0.00,,---,0.00,VWS V14.00,2013-07-29 15:04:00,
2013-07-29 11:09:00,79.6,68.5,29.93,West,281,1.0,4.0,69,0.00,,---,0.00,VWS V14.00,2013-07-29 15:09:00,
2013-07-29 11:14:00,79.8,68.7,29.92,West,259,2.0,4.0,69,0.00,,---,0.00,VWS V14.00,2013-07-29 15:14:00,
2013-07-29 11:19:00,79.9,69.2,29.92,SW,226,2.0,2.0,70,0.00,,---,0.00,VWS V14.00,2013-07-29 15:19:00,
2013-07-29 11:24:00,80.8,69.3,29.92,West,280,6.0,6.0,68,0.00,,---,0.00,VWS V14.00,2013-07-29 15:24:00,
2013-07-29 11:29:00,80.5,68.5,29.92,WNW,294,5.0,5.0,67,0.00,,---,0.00,VWS V14.00,2013-07-29 15:29:00,
2013-07-29 11:34:00,80.1,67.3,29.92,NW,321,3.0,6.0,65,0.00,,---,0.00,VWS V14.00,2013-07-29 15:34:00,
2013-07-29 11:39:00,80.3,67.5,29.92,NNE,32,6.0,7.0,65,0.00,,---,0.00,VWS V14.00,2013-07-29 15:39:00,
2013-07-29 11:45:00,80.9,68.0,29.92,NNW,334,3.0,5.0,65,0.00,,---,0.00,VWS V14.00,2013-07-29 15:45:00,
2013-07-29 11:50:00,81.2,66.9,29.92,WNW,301,0.0,5.0,62,0.00,,---,0.00,VWS V14.00,2013-07-29 15:50:00,
2013-07-29 11:55:00,81.4,67.1,29.92,WNW,282,1.0,5.0,62,0.00,,---,0.00,VWS V14.00,2013-07-29 15:55:00,
2013-07-29 12:00:00,81.8,65.1,29.92,SW,226,0.0,4.0,57,0.00,,---,0.00,VWS V14.00,2013-07-29 16:00:00,
2013-07-29 12:05:00,82.4,65.7,29.92,SE,139,4.0,4.0,57,0.00,,---,0.00,VWS V14.00,2013-07-29 16:05:00,
2013-07-29 12:10:00,82.8,66.0,29.92,NW,319,5.0,6.0,57,0.00,,---,0.00,VWS V14.00,2013-07-29 16:10:00,
2013-07-29 12:15:00,82.3,67.0,29.91,SW,236,2.0,2.0,60,0.00,,---,0.00,VWS V14.00,2013-07-29 16:15:00,
2013-07-29 12:20:00,82.3,67.0,29.91,NNW,338,5.0,6.0,60,0.00,,---,0.00,VWS V14.00,2013-07-29 16:20:00,
2013-07-29 12:26:00,82.6,66.8,29.91,SW,236,2.0,5.0,59,0.00,,---,0.00,VWS V14.00,2013-07-29 16:26:00,
2013-07-29 12:32:00,83.1,66.8,29.91,SSW,209,5.0,5.0,58,0.00,,---,0.00,VWS V14.00,2013-07-29 16:32:00,
2013-07-29 12:37:00,83.2,66.9,29.91,WSW,238,0.0,3.0,58,0.00,,---,0.00,VWS V14.00,2013-07-29 16:37:00,
2013-07-29 12:42:00,83.6,67.8,29.91,NNW,341,3.0,4.0,59,0.00,,---,0.00,VWS V14.00,2013-07-29 16:42:00,
2013-07-29 12:47:00,82.8,67.0,29.91,West,278,0.0,8.0,59,0.00,,---,0.00,VWS V14.00,2013-07-29 16:47:00,
2013-07-29 12:53:00,83.0,66.7,29.91,West,266,1.0,3.0,58,0.00,,---,0.00,VWS V14.00,2013-07-29 16:53:00,
2013-07-29 12:58:00,83.0,66.7,29.91,NW,321,3.0,6.0,58,0.00,,---,0.00,VWS V14.00,2013-07-29 16:58:00,
2013-07-29 13:03:00,83.2,66.9,29.91,SSE,160,3.0,5.0,58,0.00,,---,0.00,VWS V14.00,2013-07-29 17:03:00,
2013-07-29 13:08:00,83.9,67.6,29.91,SW,228,2.0,2.0,58,0.00,,---,0.00,VWS V14.00,2013-07-29 17:08:00,
2013-07-29 13:13:00,84.8,66.3,29.91,West,276,6.0,7.0,54,0.00,,---,0.00,VWS V14.00,2013-07-29 17:13:00,
2013-07-29 13:18:00,85.2,67.2,29.91,West,274,3.0,4.0,55,0.00,,---,0.00,VWS V14.00,2013-07-29 17:18:00,
2013-07-29 13:23:00,85.3,67.3,29.91,SW,214,1.0,2.0,55,0.00,,---,0.00,VWS V14.00,2013-07-29 17:23:00,
2013-07-29 13:28:00,85.1,67.7,29.91,SW,229,1.0,3.0,56,0.00,,---,0.00,VWS V14.00,2013-07-29 17:28:00,
2013-07-29 13:34:00,85.7,67.7,29.91,ENE,76,5.0,7.0,55,0.00,,---,0.00,VWS V14.00,2013-07-29 17:34:00,
2013-07-29 13:39:00,84.5,66.1,29.91,WNW,288,3.0,4.0,54,0.00,,---,0.00,VWS V14.00,2013-07-29 17:39:00,
2013-07-29 13:44:00,84.3,66.4,29.91,West,266,6.0,8.0,55,0.00,,---,0.00,VWS V14.00,2013-07-29 17:44:00,
2013-07-29 13:50:00,83.7,66.3,29.91,WSW,257,4.0,11.0,56,0.00,,---,0.00,VWS V14.00,2013-07-29 17:50:00,
2013-07-29 13:55:00,83.3,66.0,29.90,NW,315,5.0,7.0,56,0.00,,---,0.00,VWS V14.00,2013-07-29 17:55:00,
2013-07-29 14:00:00,83.2,65.4,29.90,WSW,256,2.0,5.0,55,0.00,,---,0.00,VWS V14.00,2013-07-29 18:00:00,
2013-07-29 14:06:00,84.5,65.5,29.90,WNW,282,2.0,6.0,53,0.00,,---,0.00,VWS V14.00,2013-07-29 18:06:00,
2013-07-29 14:11:00,84.6,65.6,29.90,WNW,285,2.0,11.0,53,0.00,,---,0.00,VWS V14.00,2013-07-29 18:11:00,
2013-07-29 14:17:00,84.2,65.8,29.91,West,281,5.0,10.0,54,0.00,,---,0.00,VWS V14.00,2013-07-29 18:17:00,
2013-07-29 14:22:00,83.6,65.7,29.91,WNW,283,1.0,12.0,55,0.00,,---,0.00,VWS V14.00,2013-07-29 18:22:00,
2013-07-29 14:27:00,83.9,64.9,29.91,WNW,293,1.0,7.0,53,0.00,,---,0.00,VWS V14.00,2013-07-29 18:27:00,
2013-07-29 14:32:00,83.8,64.9,29.90,North,359,4.0,9.0,53,0.00,,---,0.00,VWS V14.00,2013-07-29 18:32:00,
2013-07-29 14:38:00,84.0,65.1,29.90,WNW,290,3.0,12.0,53,0.00,,---,0.00,VWS V14.00,2013-07-29 18:38:00,
2013-07-29 14:43:00,84.5,65.5,29.90,SSW,210,3.0,6.0,53,0.00,,---,0.00,VWS V14.00,2013-07-29 18:43:00,
2013-07-29 14:48:00,84.9,65.3,29.91,WNW,300,2.0,9.0,52,0.00,,---,0.00,VWS V14.00,2013-07-29 18:48:00,
2013-07-29 14:53:00,84.8,65.8,29.90,West,273,6.0,7.0,53,0.00,,---,0.00,VWS V14.00,2013-07-29 18:53:00,
2013-07-29 14:58:00,84.5,65.5,29.90,NW,325,4.0,9.0,53,0.00,,---,0.00,VWS V14.00,2013-07-29 18:58:00,
2013-07-29 15:03:00,84.4,64.3,29.90,West,281,0.0,9.0,51,0.00,,---,0.00,VWS V14.00,2013-07-29 19:03:00,
2013-07-29 15:08:00,84.6,64.5,29.90,NW,315,2.0,11.0,51,0.00,,---,0.00,VWS V14.00,2013-07-29 19:08:00,
2013-07-29 15:13:00,84.7,64.0,29.90,West,274,3.0,13.0,50,0.00,,---,0.00,VWS V14.00,2013-07-29 19:13:00,
2013-07-29 15:18:00,85.2,62.7,29.90,SW,231,4.0,7.0,47,0.00,,---,0.00,VWS V14.00,2013-07-29 19:18:00,
2013-07-29 15:23:00,85.1,63.2,29.90,West,264,2.0,4.0,48,0.00,,---,0.00,VWS V14.00,2013-07-29 19:23:00,
2013-07-29 15:28:00,85.1,64.4,29.90,WNW,294,5.0,5.0,50,0.00,,---,0.00,VWS V14.00,2013-07-29 19:28:00,
2013-07-29 15:34:00,86.1,61.7,29.90,WSW,238,5.0,7.0,44,0.00,,---,0.00,VWS V14.00,2013-07-29 19:34:00,
2013-07-29 15:39:00,86.5,61.4,29.90,WSW,253,3.0,5.0,43,0.00,,---,0.00,VWS V14.00,2013-07-29 19:39:00,
2013-07-29 15:44:00,85.4,61.0,29.90,NW,315,1.0,11.0,44,0.00,,---,0.00,VWS V14.00,2013-07-29 19:44:00,
2013-07-29 15:49:00,85.4,60.4,29.90,WSW,249,3.0,5.0,43,0.00,,---,0.00,VWS V14.00,2013-07-29 19:49:00,
2013-07-29 15:54:00,85.3,60.3,29.90,WNW,285,3.0,12.0,43,0.00,,---,0.00,VWS V14.00,2013-07-29 19:54:00,
2013-07-29 15:59:00,85.2,60.2,29.90,NW,326,3.0,10.0,43,0.00,,---,0.00,VWS V14.00,2013-07-29 19:59:00,
2013-07-29 16:04:00,85.6,59.9,29.90,NNW,334,1.0,6.0,42,0.00,,---,0.00,VWS V14.00,2013-07-29 20:04:00,
2013-07-29 16:09:00,86.6,60.1,29.90,West,274,2.0,7.0,41,0.00,,---,0.00,VWS V14.00,2013-07-29 20:09:00,
2013-07-29 16:14:00,86.6,60.8,29.90,WNW,287,5.0,5.0,42,0.00,,---,0.00,VWS V14.00,2013-07-29 20:14:00,
2013-07-29 16:19:00,85.2,60.8,29.90,WNW,298,2.0,4.0,44,0.00,,---,0.00,VWS V14.00,2013-07-29 20:19:00,
2013-07-29 16:24:00,85.5,60.5,29.90,North,360,5.0,7.0,43,0.00,,---,0.00,VWS V14.00,2013-07-29 20:24:00,
2013-07-29 16:29:00,85.0,58.7,29.91,NNW,332,3.0,8.0,41,0.00,,---,0.00,VWS V14.00,2013-07-29 20:29:00,
2013-07-29 16:35:00,84.2,59.3,29.90,SW,225,6.0,6.0,43,0.00,,---,0.00,VWS V14.00,2013-07-29 20:35:00,
2013-07-29 16:40:00,84.6,60.9,29.90,WNW,301,6.0,7.0,45,0.00,,---,0.00,VWS V14.00,2013-07-29 20:40:00,
2013-07-29 16:45:00,84.7,59.8,29.91,SSW,210,4.0,12.0,43,0.00,,---,0.00,VWS V14.00,2013-07-29 20:45:00,
2013-07-29 16:50:00,85.0,59.4,29.91,SSE,151,1.0,9.0,42,0.00,,---,0.00,VWS V14.00,2013-07-29 20:50:00,
2013-07-29 16:55:00,84.8,58.5,29.91,South,174,3.0,6.0,41,0.00,,---,0.00,VWS V14.00,2013-07-29 20:55:00,
2013-07-29 17:00:00,85.2,60.2,29.91,WNW,302,2.0,5.0,43,0.00,,---,0.00,VWS V14.00,2013-07-29 21:00:00,
2013-07-29 17:06:00,84.8,58.5,29.90,NW,312,7.0,11.0,41,0.00,,---,0.00,VWS V14.00,2013-07-29 21:06:00,
2013-07-29 17:11:00,84.7,57.0,29.90,SSE,152,3.0,8.0,39,0.00,,---,0.00,VWS V14.00,2013-07-29 21:11:00,
2013-07-29 17:16:00,84.8,54.1,29.91,SW,224,3.0,11.0,35,0.00,,---,0.00,VWS V14.00,2013-07-29 21:16:00,
2013-07-29 17:22:00,84.8,54.1,29.91,SW,221,1.0,7.0,35,0.00,,---,0.00,VWS V14.00,2013-07-29 21:22:00,
2013-07-29 17:27:00,84.3,53.7,29.91,WSW,256,8.0,10.0,35,0.00,,---,0.00,VWS V14.00,2013-07-29 21:27:00,
2013-07-29 17:32:00,84.0,54.2,29.91,NW,323,5.0,12.0,36,0.00,,---,0.00,VWS V14.00,2013-07-29 21:32:00,
2013-07-29 17:37:00,84.1,55.0,29.91,West,279,4.0,10.0,37,0.00,,---,0.00,VWS V14.00,2013-07-29 21:37:00,
2013-07-29 17:43:00,84.0,55.7,29.91,WNW,298,1.0,10.0,38,0.00,,---,0.00,VWS V14.00,2013-07-29 21:43:00,
2013-07-29 17:48:00,84.2,56.6,29.91,WNW,303,8.0,8.0,39,0.00,,---,0.00,VWS V14.00,2013-07-29 21:48:00,
2013-07-29 17:53:00,83.6,56.0,29.91,WNW,289,6.0,12.0,39,0.00,,---,0.00,VWS V14.00,2013-07-29 21:53:00,
2013-07-29 17:58:00,83.5,55.2,29.91,NNW,332,7.0,12.0,38,0.00,,---,0.00,VWS V14.00,2013-07-29 21:58:00,
2013-07-29 18:03:00,83.5,56.0,29.91,West,275,7.0,10.0,39,0.00,,---,0.00,VWS V14.00,2013-07-29 22:03:00,
2013-07-29 18:08:00,83.3,55.1,29.91,NNW,332,1.0,9.0,38,0.00,,---,0.00,VWS V14.00,2013-07-29 22:08:00,
2013-07-29 18:13:00,83.4,55.2,29.91,WSW,257,3.0,3.0,38,0.00,,---,0.00,VWS V14.00,2013-07-29 22:13:00,
2013-07-29 18:18:00,83.1,53.4,29.91,WNW,283,4.0,5.0,36,0.00,,---,0.00,VWS V14.00,2013-07-29 22:18:00,
2013-07-29 18:23:00,82.8,54.6,29.91,WNW,297,5.0,6.0,38,0.00,,---,0.00,VWS V14.00,2013-07-29 22:23:00,
2013-07-29 18:28:00,82.7,54.5,29.91,NW,304,2.0,6.0,38,0.00,,---,0.00,VWS V14.00,2013-07-29 22:28:00,
2013-07-29 18:33:00,82.7,55.2,29.91,NW,307,2.0,2.0,39,0.00,,---,0.00,VWS V14.00,2013-07-29 22:33:00,
2013-07-29 18:39:00,82.7,56.0,29.91,NW,323,5.0,5.0,40,0.00,,---,0.00,VWS V14.00,2013-07-29 22:39:00,
2013-07-29 18:44:00,82.6,55.9,29.92,NNE,15,5.0,5.0,40,0.00,,---,0.00,VWS V14.00,2013-07-29 22:44:00,
2013-07-29 18:49:00,82.5,55.8,29.92,SW,231,4.0,6.0,40,0.00,,---,0.00,VWS V14.00,2013-07-29 22:49:00,
2013-07-29 18:54:00,82.5,56.5,29.92,WNW,290,2.0,5.0,41,0.00,,---,0.00,VWS V14.00,2013-07-29 22:54:00,
2013-07-29 18:59:00,82.4,56.4,29.92,West,275,1.0,5.0,41,0.00,,---,0.00,VWS V14.00,2013-07-29 22:59:00,
2013-07-29 19:05:00,82.5,56.5,29.92,NW,304,7.0,7.0,41,0.00,,---,0.00,VWS V14.00,2013-07-29 23:05:00,
2013-07-29 19:10:00,81.9,55.9,29.92,NW,304,5.0,11.0,41,0.00,,---,0.00,VWS V14.00,2013-07-29 23:10:00,
2013-07-29 19:15:00,81.6,56.3,29.92,NW,318,0.0,8.0,42,0.00,,---,0.00,VWS V14.00,2013-07-29 23:15:00,
2013-07-29 19:20:00,81.4,55.5,29.93,WSW,257,4.0,8.0,41,0.00,,---,0.00,VWS V14.00,2013-07-29 23:20:00,
2013-07-29 19:25:00,81.1,55.9,29.93,WNW,294,6.0,8.0,42,0.00,,---,0.00,VWS V14.00,2013-07-29 23:25:00,
2013-07-29 19:30:00,80.8,55.6,29.93,West,259,8.0,8.0,42,0.00,,---,0.00,VWS V14.00,2013-07-29 23:30:00,
2013-07-29 19:35:00,80.5,56.0,29.93,NW,326,3.0,8.0,43,0.00,,---,0.00,VWS V14.00,2013-07-29 23:35:00,
2013-07-29 19:41:00,79.9,56.1,29.93,WSW,257,0.0,6.0,44,0.00,,---,0.00,VWS V14.00,2013-07-29 23:41:00,
2013-07-29 19:46:00,79.6,55.8,29.93,West,278,5.0,12.0,44,0.00,,---,0.00,VWS V14.00,2013-07-29 23:46:00,
2013-07-29 19:52:00,79.2,56.0,29.94,NW,311,2.0,8.0,45,0.00,,---,0.00,VWS V14.00,2013-07-29 23:52:00,
2013-07-29 19:57:00,79.0,55.9,29.94,West,281,6.0,9.0,45,0.00,,---,0.00,VWS V14.00,2013-07-29 23:57:00,
2013-07-29 20:02:00,78.8,56.3,29.94,NW,312,2.0,8.0,46,0.00,,---,0.00,VWS V14.00,2013-07-30 00:02:00,
2013-07-29 20:07:00,78.4,55.9,29.94,NW,312,2.0,6.0,46,0.00,,---,0.00,VWS V14.00,2013-07-30 00:07:00,
2013-07-29 20:12:00,78.1,56.2,29.94,West,276,4.0,7.0,47,0.00,,---,0.00,VWS V14.00,2013-07-30 00:12:00,
2013-07-29 20:18:00,77.9,56.1,29.95,WNW,301,1.0,6.0,47,0.00,,---,0.00,VWS V14.00,2013-07-30 00:18:00,
2013-07-29 20:23:00,77.7,55.9,29.95,West,278,2.0,7.0,47,0.00,,---,0.00,VWS V14.00,2013-07-30 00:23:00,
2013-07-29 20:28:00,77.4,56.2,29.95,West,277,3.0,7.0,48,0.00,,---,0.00,VWS V14.00,2013-07-30 00:28:00,
2013-07-29 20:33:00,77.2,56.0,29.95,NW,309,5.0,6.0,48,0.00,,---,0.00,VWS V14.00,2013-07-30 00:33:00,
2013-07-29 20:38:00,76.9,56.3,29.95,WNW,295,0.0,6.0,49,0.00,,---,0.00,VWS V14.00,2013-07-30 00:38:00,
2013-07-29 20:43:00,76.8,56.2,29.95,West,274,0.0,7.0,49,0.00,,---,0.00,VWS V14.00,2013-07-30 00:43:00,
2013-07-29 20:48:00,76.7,56.1,29.95,West,269,3.0,3.0,49,0.00,,---,0.00,VWS V14.00,2013-07-30 00:48:00,
2013-07-29 20:53:00,76.5,56.5,29.96,WNW,298,1.0,1.0,50,0.00,,---,0.00,VWS V14.00,2013-07-30 00:53:00,
2013-07-29 20:59:00,76.3,56.3,29.96,WNW,290,0.0,1.0,50,0.00,,---,0.00,VWS V14.00,2013-07-30 00:59:00,
2013-07-29 21:05:00,76.0,57.1,29.96,WNW,288,1.0,5.0,52,0.00,,---,0.00,VWS V14.00,2013-07-30 01:05:00,
2013-07-29 21:10:00,75.7,56.8,29.96,NW,323,5.0,5.0,52,0.00,,---,0.00,VWS V14.00,2013-07-30 01:10:00,
2013-07-29 21:15:00,75.5,57.2,29.97,WNW,285,1.0,3.0,53,0.00,,---,0.00,VWS V14.00,2013-07-30 01:15:00,
2013-07-29 21:20:00,75.3,57.0,29.97,WSW,239,2.0,2.0,53,0.00,,---,0.00,VWS V14.00,2013-07-30 01:20:00,
2013-07-29 21:25:00,75.0,57.2,29.97,West,275,1.0,5.0,54,0.00,,---,0.00,VWS V14.00,2013-07-30 01:25:00,
2013-07-29 21:30:00,74.9,57.2,29.97,WSW,244,0.0,2.0,54,0.00,,---,0.00,VWS V14.00,2013-07-30 01:30:00,
2013-07-29 21:35:00,74.6,57.4,29.97,WNW,284,2.0,4.0,55,0.00,,---,0.00,VWS V14.00,2013-07-30 01:35:00,
2013-07-29 21:40:00,74.4,57.2,29.98,WNW,285,2.0,4.0,55,0.00,,---,0.00,VWS V14.00,2013-07-30 01:40:00,
2013-07-29 21:46:00,74.2,57.0,29.98,NW,309,1.0,5.0,55,0.00,,---,0.00,VWS V14.00,2013-07-30 01:46:00,
2013-07-29 21:51:00,74.0,56.8,29.98,WSW,250,1.0,4.0,55,0.00,,---,0.00,VWS V14.00,2013-07-30 01:51:00,
2013-07-29 21:56:00,73.9,56.7,29.98,WSW,258,0.0,3.0,55,0.00,,---,0.00,VWS V14.00,2013-07-30 01:56:00,
2013-07-29 22:01:00,73.7,57.0,29.98,WNW,297,0.0,5.0,56,0.00,,---,0.00,VWS V14.00,2013-07-30 02:01:00,
2013-07-29 22:07:00,73.5,56.9,29.98,West,281,2.0,5.0,56,0.00,,---,0.00,VWS V14.00,2013-07-30 02:07:00,
2013-07-29 22:12:00,73.4,56.8,29.98,WSW,247,4.0,5.0,56,0.00,,---,0.00,VWS V14.00,2013-07-30 02:12:00,
2013-07-29 22:17:00,73.3,56.7,29.98,West,280,1.0,6.0,56,0.00,,---,0.00,VWS V14.00,2013-07-30 02:17:00,
2013-07-29 22:22:00,73.1,57.0,29.98,WNW,287,2.0,5.0,57,0.00,,---,0.00,VWS V14.00,2013-07-30 02:22:00,
2013-07-29 22:27:00,72.9,56.8,29.98,WNW,285,4.0,5.0,57,0.00,,---,0.00,VWS V14.00,2013-07-30 02:27:00,
2013-07-29 22:32:00,72.8,57.2,29.98,WSW,254,1.0,5.0,58,0.00,,---,0.00,VWS V14.00,2013-07-30 02:32:00,
2013-07-29 22:38:00,72.6,57.0,29.99,SW,235,1.0,5.0,58,0.00,,---,0.00,VWS V14.00,2013-07-30 02:38:00,
2013-07-29 22:43:00,72.4,57.3,29.99,WNW,282,1.0,3.0,59,0.00,,---,0.00,VWS V14.00,2013-07-30 02:43:00,
2013-07-29 22:48:00,72.1,57.5,29.99,West,270,1.0,4.0,60,0.00,,---,0.00,VWS V14.00,2013-07-30 02:48:00,
2013-07-29 22:53:00,71.8,57.2,29.99,NW,307,1.0,2.0,60,0.00,,---,0.00,VWS V14.00,2013-07-30 02:53:00,
2013-07-29 22:59:00,71.6,57.0,29.99,WNW,295,1.0,1.0,60,0.00,,---,0.00,VWS V14.00,2013-07-30 02:59:00,
2013-07-29 23:04:00,71.4,57.3,29.99,West,280,2.0,4.0,61,0.00,,---,0.00,VWS V14.00,2013-07-30 03:04:00,
2013-07-29 23:09:00,71.1,57.0,29.99,West,271,1.0,1.0,61,0.00,,---,0.00,VWS V14.00,2013-07-30 03:09:00,
2013-07-29 23:14:00,71.0,57.3,29.99,NW,305,0.0,0.0,62,0.00,,---,0.00,VWS V14.00,2013-07-30 03:14:00,
2013-07-29 23:19:00,70.8,57.2,29.99,WNW,295,1.0,2.0,62,0.00,,---,0.00,VWS V14.00,2013-07-30 03:19:00,
2013-07-29 23:24:00,70.7,57.1,29.99,West,259,1.0,1.0,62,0.00,,---,0.00,VWS V14.00,2013-07-30 03:24:00,
2013-07-29 23:29:00,70.5,57.3,29.99,WNW,284,2.0,2.0,63,0.00,,---,0.00,VWS V14.00,2013-07-30 03:29:00,
2013-07-29 23:35:00,70.3,57.1,29.99,West,279,1.0,4.0,63,0.00,,---,0.00,VWS V14.00,2013-07-30 03:35:00,
2013-07-29 23:40:00,70.1,56.9,30.00,SW,232,0.0,0.0,63,0.00,,---,0.00,VWS V14.00,2013-07-30 03:40:00,
2013-07-29 23:45:00,70.1,56.9,29.99,West,281,1.0,2.0,63,0.00,,---,0.00,VWS V14.00,2013-07-30 03:45:00,
2013-07-29 23:50:00,69.9,57.2,30.00,WNW,288,2.0,3.0,64,0.00,,---,0.00,VWS V14.00,2013-07-30 03:50:00,
2013-07-29 23:55:00,69.7,57.0,30.00,WNW,284,0.0,1.0,64,0.00,,---,0.00,VWS V14.00,2013-07-30 03:55:00,